weather.gov     
National Weather Service

Regional Weather Roundup
NWS Homepage
This page is being discontinued on March 12, 2014.
The same data is available at this site. Please update your bookmarks.
Thank you, and we apologize for the inconvenience.
Please send an email to SR-SRH.Webmaster@noaa.gov with any concerns.


Current Version
Previous Version:    01  02  03  04  05  06  07  08  09  10  11  12  13  14  15  16  17  18  19  20  21  22  23  24  25  26  27  28  29  30  
   31  32  33  34  35  36  37  38  39  40  41  42  43  44  45  46  47  48  49  50  51  52  53  
[Printable]
791
ASUS44 KOUN 311510
RWROK

WEATHER ROUNDUP FOR OKLAHOMA
NATIONAL WEATHER SERVICE NORMAN OK
1000 AM CDT FRI OCT 31 2014

NOTE: "FAIR" INDICATES FEW OR NO CLOUDS BELOW 12,000 FEET WITH NO
      SIGNIFICANT WEATHER AND/OR OBSTRUCTIONS TO VISIBILITY.

OKZ001>007-009>012-014-015-017-311600-
NORTHWEST OKLAHOMA AND THE PANHANDLE

CITY           SKY/WX    TMP DP  RH WIND       PRES   REMARKS
GAGE           PTSUNNY   41  34  76 N14       30.49R
ENID/WOODRING  MOSUNNY   46  37  71 N22G30    30.45R
$$

OKZ016-021>023-033>039-044-045-311600-
SOUTHWEST OKLAHOMA

CITY           SKY/WX    TMP DP  RH WIND       PRES   REMARKS
LAWTON/REGL    LGT RAIN  51  38  60 NE28G35   30.41R
LAWTON/FT SILL SUNNY     49  39  67 NE15G28   30.41R
FREDERICK      LGT RAIN  51  38  60 N20       30.40R
CLINTON        SUNNY     46  36  68 N16       30.47R
HOBART         LGT RAIN  48  38  68 NE17      30.45R
ALTUS AFB      SUNNY     50  38  63 N21G28    30.44R
$$

OKZ018>020-024>031-311600-
CENTRAL OKLAHOMA

CITY           SKY/WX    TMP DP  RH WIND       PRES   REMARKS
OKLAHOMA CITY  CLOUDY    47  38  71 N17G26    30.42R
OKC/WILEY POST CLOUDY    46  39  76 N14G24    30.43R
STILLWATER     SUNNY     51  38  60 N16G24    30.43R
GUTHRIE        SUNNY     49  39  68 N8G20     30.44R
$$

OKZ008-013-054>072-311600-
NORTHEAST OKLAHOMA

CITY           SKY/WX    TMP DP  RH WIND       PRES   REMARKS
TULSA          MOSUNNY   50  39  66 N23G30    30.39R
TULSA/JONES    PTSUNNY   51  40  65 N14G23    30.40R
PONCA CITY     SUNNY     47  35  63 N16       30.46R
BARTLESVILLE   SUNNY     45  31  58 N21G32    30.45R
MUSKOGEE       CLOUDY    50  41  71 N17       30.39R
$$

OKZ032-040>043-046>053-073>077-311600-
SOUTH CENTRAL/SOUTHEAST OKLAHOMA

CITY           SKY/WX    TMP DP  RH WIND       PRES   REMARKS
ARDMORE/DWNTWN SUNNY     54  39  58 NE13      30.37R
MCALESTER      CLOUDY    52  41  66 N16G30    30.37R
$$





U.S. Dept. of Commerce
NOAA National Weather Service
1325 East West Highway
Silver Spring, MD 20910
E-mail: w-nws.webmaster@noaa.gov
Page last modified: May 16, 2007
NATIONAL WEATHER SERVICE: for Safety, for Work, for Fun - FOR LIFE